Regional Weather Roundup
Issued by NWS

Home | Current Version | Previous Version | Text Only | Print | Product List | Glossary On
Versions: 1 2 3 4 5 6 7 8 9 10 11 12 13 14 15 16 17 18 19 20 21 22 23 24 25 26 27 28 29 30 31 32 33 34 35 36 37 38 39 40 41 42 43 44 45 46 47 48 49 50
368
ASUS43 KLSX 162107
RWRMO

WEATHER SUMMARY FOR MISSOURI
NATIONAL WEATHER SERVICE SPRINGFIELD MO
300 PM CST MON JAN 16 2017

NOTE: "FAIR" INDICATES FEW OR NO CLOUDS BELOW 12,000 FEET WITH NO
       SIGNIFICANT WEATHER AND/OR OBSTRUCTIONS TO VISIBILITY.
       CURRENT SKY AND/OR WEATHER CONDITIONS ARE NOT AVAILABLE FOR
       CHILLICOTHE AND FARMINGTON.

MOZ001>031-035>038-043-044-053-054-162200-
...NORTHERN AND WESTERN MISSOURI...

CITY           SKY/WX    TMP DP  RH WIND       PRES   REMARKS
KANSAS CTY INT CLOUDY    49  45  86 S7        29.82S FOG
KANSAS C DTWN  LGT RAIN  50  50 100 S7        29.83S
LEE`S SUMMIT   CLOUDY    54  47  77 SW15      29.83S
ST JOSEPH      CLOUDY    42  42 100 SE5       29.83F
CHILLICOTHE      N/A     45  45 100 E3        29.86F
KIRKSVILLE     FOG       39  39 100 E9        29.87F VSB<1/4

$$
MOZ066>068-077>081-088>096-101>105-162200-
...SOUTHWEST MISSOURI...

CITY           SKY/WX    TMP DP  RH WIND       PRES   REMARKS
SPRINGFIELD    CLOUDY    60  56  86 S12       29.84F
JOPLIN         PTSUNNY   56  50  80 S9        29.86S
BRANSON        CLOUDY    57  57 100 S5        29.89S

$$
MOZ032>034-039>042-045>050-055>058-069>072-162200-
...CENTRAL MISSOURI...

CITY           SKY/WX    TMP DP  RH WIND       PRES   REMARKS
COLUMBIA       CLOUDY    54  54 100 E6        29.87S FOG
JEFFERSON CITY CLOUDY    57  55  93 CALM      29.87F
ROLLA          CLOUDY    55  54  96 S14       29.87F
SEDALIA        MOSUNNY   61  52  72 S17       29.84F
WHITEMAN AFB   PTSUNNY   60  58  92 SW7       29.81S
WARRENSBURG    PTSUNNY   55  50  82 SW9       29.83R
OSAGE BEACH    CLOUDY    58  54  86 S7        29.87F

$$
MOZ051-052-059>065-162200-
...EAST CENTRAL MISSOURI...

CITY           SKY/WX    TMP DP  RH WIND       PRES   REMARKS
ST LOUIS INTL  LGT RAIN  53  50  89 SE15G25   29.92F VSB 1
SPIRIT OF STL  CLOUDY    51  51 100 SE7       29.92F FOG
ST CHARLES     LGT RAIN  51  51 100 SE12      29.92F FOG

$$
MOZ072>076-082>087-097>100-106>115-162200-
...SOUTH CENTRAL AND SOUTHEAST MISSOURI...

CITY           SKY/WX    TMP DP  RH WIND       PRES   REMARKS
CAPE GIRARDEAU CLOUDY    61  57  87 S12       30.00F
FARMINGTON     LGT RAIN  54  54 100 S10       29.96F FOG
POPLAR BLUFF   CLOUDY    59  58  96 S7        29.97F
WEST PLAINS    CLOUDY    55  55 100 S9        29.92R FOG

$$



USA.gov is the U.S. government's official web portal to all federal, state and local government web resources and services.